sat.trackr.live / text

‹ back to catalog

RASSVET-3 13

NORAD 68372 · 2026-061N

PAYLOAD ACTIVE UNKNOWN

§ Identity

Operator
Country
CIS
Launch date
2026-03-23
Launch site
PLMSC
Launch vehicle
Mass (kg)
RCS (m²)

External: N2YO · Heavens-Above · Gunter

§ Orbital elements

Epoch: 2026-05-24T03:27:38.713248Z

Period
92.56 min
Inclination
82.2960°
Eccentricity
0.0007928
Mean motion
15.55722428 rev/d
Perigee alt
394.7 km
Apogee alt
405.4 km
Semi-major
6,778.2 km
B*
2.9394e-4
RAAN
40.0454°
Arg perigee
131.9233°
Mean anomaly
228.2698°
Rev number
970

§ Raw data

RASSVET-3 131 68372U 26061N   26144.14419807  .00020316  00000+0  29394-3 0  99932 68372  82.2960  40.0454 0007928 131.9233 228.2698 15.55722428  9704

JSON: /api/v1/satellites/68372 · /tle

For live sub-satellite position, see the globe view (requires WebGL).

§ Visibility from observer

Set your observer location to see the next 7 days of passes ≥ 10°. The values pass through the URL so the page stays shareable.

No JS? Fill the form by hand. The geolocation button needs JavaScript.